Home   Weather   Bremen   Past weeks

Flag for Germany Past Weather in Bremen, Bremen, Germany — Yesterday and Last 2 Weeks

Now
32 °F

Fog.


Feels Like: 32 °F
Forecast: 28 / 36 °F
Wind: No wind

Location: Bremen Airport

Current Time: Dec 3, 2016 at 6:41:50 pm

Latest Report: Dec 3, 2016 at 6:20 pm


Visibility: N/A

Pressure: 30.33 "Hg

Humidity: 93%

Dew Point: 30 °F

Location of BremenLocation

Past Weather in Bremen — Graph

°F

Bremen Temperature Yesterday

Maximum temperature yesterday: 48 °F (at 12:50 am)
Minimum temperature yesterday: 28 °F (at 9:50 pm)
Average temperature yesterday: 40 °F

High & Low Weather Summary for the Past Weeks

 TemperatureHumidityPressure
High57 °F (Nov 21, 11:20 am)100% (Nov 23, 9:20 pm)30.60 "Hg (Nov 23, 9:20 pm)
Low18 °F (Nov 29, 7:20 am)54% (Nov 20, 7:20 pm)29.27 "Hg (Nov 20, 2:20 pm)
Average40 °F84%30.07 "Hg
* Reported Nov 18 5:20 pm — Dec 3 5:20 pm, Bremen, Weather by CustomWeather, © 2016

Note: Actual official high and low records may vary slightly from our data, if they occured in-between our weather recording intervals... More about our weather records

Advertising

Bremen Weather History for the Previous 24 Hours

Scroll right to see more
 ConditionsComfort  
Time TempWeatherWind HumidityBarometerVisibility
5:20 pm
Sat, Dec 3
34 °FFog.1 mph100%30.33 "HgN/A
4:50 pm36 °FFog.No wind93%30.33 "HgN/A
4:20 pm36 °FFog.2 mph93%30.33 "HgN/A
3:50 pm39 °FScattered clouds.1 mph81%30.30 "HgN/A
3:20 pm41 °FScattered clouds.No wind76%30.30 "HgN/A
2:50 pm43 °FScattered clouds.No wind76%30.30 "HgN/A
2:20 pm41 °FScattered clouds.2 mph81%30.30 "HgN/A
1:50 pm41 °FScattered clouds.1 mph81%30.30 "HgN/A
1:20 pm41 °FScattered clouds.3 mph81%30.30 "HgN/A
12:50 pm39 °FScattered clouds.2 mph87%30.30 "HgN/A
12:20 pm37 °FScattered clouds.2 mph87%30.30 "HgN/A
11:50 am36 °FScattered clouds.2 mph93%30.30 "HgN/A
11:20 am36 °FPartly sunny.3 mph87%30.30 "HgN/A
10:50 am34 °FPartly sunny.No wind93%30.33 "HgN/A
10:20 am32 °FPartly sunny.1 mph100%30.30 "HgN/A
9:50 am32 °FPartly sunny.2 mph100%30.30 "HgN/A
9:20 am32 °FPartly sunny.2 mph93%30.30 "HgN/A
8:50 am30 °FPartly sunny.2 mph100%30.27 "HgN/A
8:20 am30 °FPartly sunny.1 mph100%30.27 "HgN/A
7:50 am30 °FPassing clouds.5 mph100%30.27 "HgN/A
7:20 am32 °FPassing clouds.2 mph93%30.27 "HgN/A
6:50 am30 °FPassing clouds.1 mph93%30.27 "HgN/A
6:20 am30 °FPassing clouds.2 mph93%30.27 "HgN/A
5:50 am28 °FPassing clouds.3 mph93%30.24 "HgN/A
5:20 am27 °FIce fog.No wind100%30.27 "Hg3 mi
4:50 am27 °FIce fog.No wind100%30.24 "Hg1 mi
4:20 am28 °FIce fog.No wind93%30.24 "Hg1 mi
3:50 am28 °FChilly.No wind93%30.24 "HgN/A
3:20 am27 °FChilly.1 mph100%30.24 "HgN/A
2:50 am27 °FChilly.2 mph100%30.24 "HgN/A
2:20 am28 °FChilly.3 mph93%30.24 "HgN/A
1:50 am28 °FFog.2 mph100%30.24 "HgN/A
1:20 am28 °FFog.1 mph100%30.24 "HgN/A
12:50 am28 °FFog.2 mph93%30.24 "HgN/A
12:20 am28 °FFog.No wind100%30.24 "HgN/A
11:50 pm
Fri, Dec 2
28 °FFog.No wind100%30.24 "HgN/A
11:20 pm28 °FFog.No wind100%30.24 "HgN/A
10:50 pm30 °FFog.No wind93%30.24 "HgN/A
10:20 pm30 °FFog.No wind100%30.24 "HgN/A
9:50 pm28 °FFog.2 mph100%30.24 "HgN/A
9:20 pm30 °FFog.No wind93%30.24 "HgN/A
8:50 pm30 °FFog.2 mph100%30.24 "HgN/A
8:20 pm30 °FFog.2 mph100%30.24 "HgN/A
7:50 pm30 °FFog.2 mph93%30.24 "HgN/A
7:20 pm32 °FFog.2 mph93%30.21 "HgN/A
6:50 pm34 °FClear.2 mph87%30.21 "Hg10 mi
6:20 pm32 °FClear.3 mph87%30.21 "Hg10 mi
Weather by CustomWeather, © 2016

See weather overviewHow to use our weather pages